| time (UTC) | temp F | wind direction | speed knots | gust knots | rain 1hr in | rain 24hr in | rain mn in | humidity % | barometer mb |
| 20260509070516 | 50 | 0.0 | 0.9 | 0.00 | 0.00 | 0.00 | 78 | 1012.5 | |
| 20260509065516 | 51 | 338 | 0.9 | 0.9 | 0.00 | 0.00 | 0.00 | 82 | 1012.6 |
| 20260509064516 | 50 | 315 | 0.9 | 1.7 | 0.00 | 0.00 | 0.00 | 83 | 1012.5 |
| 20260509063516 | 48 | 315 | 0.9 | 1.7 | 0.00 | 0.00 | 0.00 | 86 | 1012.5 |
| 20260509062516 | 47 | 0.0 | 1.7 | 0.00 | 0.00 | 0.00 | 85 | 1012.5 | |
| 20260509061516 | 47 | 0.0 | 0.9 | 0.00 | 0.00 | 0.00 | 84 | 1012.6 | |
| 20260509055516 | 46 | 0.0 | 0.0 | 0.00 | 0.00 | 0.00 | 84 | 1012.9 | |
| 20260509054516 | 47 | 0.0 | 1.7 | 0.00 | 0.00 | 0.00 | 83 | 1013.1 | |
| 20260509053516 | 47 | 0.0 | 1.7 | 0.00 | 0.00 | 0.00 | 83 | 1013.2 | |
| 20260509052516 | 47 | 0.0 | 1.7 | 0.00 | 0.00 | 0.00 | 83 | 1013.3 | |
| 20260509051536 | 47 | 0.0 | 0.9 | 0.00 | 0.00 | 0.00 | 81 | 1013.3 | |
| 20260509050516 | 48 | 0.0 | 1.7 | 0.00 | 0.00 | 0.00 | 81 | 1013.4 | |
| 20260509045536 | 48 | 0.0 | 0.9 | 0.00 | 0.00 | 0.00 | 81 | 1013.5 | |
| 20260509044516 | 48 | 0.0 | 1.7 | 0.00 | 0.00 | 0.00 | 80 | 1013.7 | |
| 20260509043516 | 48 | 0.0 | 1.7 | 0.00 | 0.00 | 0.00 | 80 | 1013.8 | |
| 20260509042516 | 48 | 0.0 | 1.7 | 0.00 | 0.00 | 0.00 | 79 | 1013.9 | |
| 20260509041516 | 48 | 0.0 | 0.0 | 0.00 | 0.00 | 0.00 | 78 | 1013.7 | |
| 20260509040516 | 49 | 0.0 | 1.7 | 0.00 | 0.00 | 0.00 | 77 | 1013.9 | |
| 20260509035517 | 49 | 0.0 | 0.0 | 0.00 | 0.00 | 0.00 | 76 | 1013.8 | |
| 20260509034517 | 49 | 0.0 | 1.7 | 0.00 | 0.00 | 0.00 | 78 | 1013.8 | |
| 20260509033517 | 49 | 0.0 | 1.7 | 0.00 | 0.00 | 0.00 | 75 | 1013.9 | |
| 20260509032517 | 50 | 0.0 | 0.9 | 0.00 | 0.00 | 0.00 | 75 | 1014.1 | |
| 20260509031517 | 50 | 0.0 | 0.0 | 0.00 | 0.00 | 0.00 | 72 | 1014.1 | |
| 20260509030517 | 51 | 0.0 | 1.7 | 0.00 | 0.00 | 0.00 | 71 | 1014.1 | |
| 20260509025517 | 51 | 0.0 | 0.9 | 0.00 | 0.00 | 0.00 | 70 | 1014.2 | |
| 20260509024517 | 51 | 0.0 | 0.9 | 0.00 | 0.00 | 0.00 | 71 | 1014.0 | |
| 20260509023517 | 52 | 0.0 | 0.0 | 0.00 | 0.00 | 0.00 | 70 | 1014.1 | |
| 20260509022516 | 53 | 0.0 | 0.0 | 0.00 | 0.00 | 0.00 | 67 | 1014.2 | |
| 20260509021537 | 53 | 0.0 | 0.9 | 0.00 | 0.00 | 0.00 | 67 | 1014.2 | |
| 20260509020540 | 53 | 0.0 | 0.0 | 0.00 | 0.00 | 0.00 | 67 | 1014.2 | |
| 20260509015517 | 54 | 0.0 | 0.0 | 0.00 | 0.00 | 0.00 | 62 | 1013.9 | |
| 20260509014517 | 55 | 0.0 | 1.7 | 0.00 | 0.00 | 0.00 | 61 | 1013.6 | |
| 20260509013637 | 55 | 0.0 | 0.0 | 0.00 | 0.00 | 0.00 | 58 | 1013.9 | |
| 20260509012516 | 56 | 0.0 | 0.0 | 0.00 | 0.00 | 0.00 | 58 | 1013.6 | |
| 20260509011537 | 56 | 0.0 | 0.0 | 0.00 | 0.00 | 0.00 | 56 | 1013.5 | |
| 20260509010517 | 57 | 0.0 | 1.7 | 0.00 | 0.00 | 0.00 | 60 | 1013.4 | |
| 20260509005517 | 58 | 338 | 0.9 | 0.9 | 0.00 | 0.00 | 0.00 | 59 | 1013.5 |
| 20260509004537 | 58 | 0.0 | 0.0 | 0.00 | 0.00 | 0.00 | 52 | 1013.1 | |
| 20260509003516 | 59 | 0.0 | 1.7 | 0.00 | 0.00 | 0.00 | 53 | 1013.2 | |
| 20260509002516 | 60 | 315 | 0.9 | 0.9 | 0.00 | 0.00 | 0.00 | 55 | 1013.2 |
| 20260509001517 | 61 | 0.0 | 0.9 | 0.00 | 0.00 | 0.00 | 48 | 1012.8 | |
| 20260509000516 | 61 | 0.0 | 1.7 | 0.00 | 0.00 | 0.00 | 47 | 1013.1 | |
| 20260508235516 | 63 | 315 | 0.9 | 0.9 | 0.00 | 0.00 | 0.00 | 46 | 1013.1 |
| 20260508234516 | 64 | 315 | 0.9 | 0.9 | 0.00 | 0.00 | 0.00 | 41 | 1013.0 |
| 20260508233516 | 66 | 0.0 | 1.7 | 0.00 | 0.00 | 0.00 | 38 | 1013.5 | |
| 20260508232516 | 68 | 270 | 0.9 | 2.6 | 0.00 | 0.00 | 0.00 | 34 | 1013.3 |
| 20260508231516 | 70 | 0.0 | 1.7 | 0.00 | 0.00 | 0.00 | 34 | 1013.4 | |
| 20260508230516 | 70 | 0.0 | 1.7 | 0.00 | 0.00 | 0.00 | 33 | 1013.4 | |
| 20260508225516 | 70 | 203 | 0.9 | 3.5 | 0.00 | 0.00 | 0.00 | 30 | 1013.6 |
| 20260508224516 | 70 | 315 | 0.9 | 2.6 | 0.00 | 0.00 | 0.00 | 33 | 1013.6 |
| 20260508223516 | 70 | 225 | 1.7 | 4.3 | 0.00 | 0.00 | 0.00 | 33 | 1013.6 |
| 20260508222516 | 70 | 225 | 1.7 | 6.1 | 0.00 | 0.00 | 0.00 | 36 | 1013.8 |
| 20260508221516 | 70 | 248 | 2.6 | 7.0 | 0.00 | 0.00 | 0.00 | 30 | 1013.9 |
| 20260508220516 | 71 | 248 | 0.9 | 2.6 | 0.00 | 0.00 | 0.00 | 32 | 1013.9 |
| 20260508215516 | 71 | 203 | 2.6 | 7.8 | 0.00 | 0.00 | 0.00 | 31 | 1013.8 |
| 20260508214617 | 71 | 270 | 0.9 | 3.5 | 0.00 | 0.00 | 0.00 | 29 | 1013.8 |
| 20260508213516 | 71 | 225 | 2.6 | 7.8 | 0.00 | 0.00 | 0.00 | 33 | 1013.9 |
| 20260508212516 | 71 | 203 | 1.7 | 4.3 | 0.00 | 0.00 | 0.00 | 33 | 1013.7 |
| 20260508211516 | 71 | 248 | 0.9 | 3.5 | 0.00 | 0.00 | 0.00 | 31 | 1013.9 |
| 20260508210536 | 71 | 270 | 1.7 | 3.5 | 0.00 | 0.00 | 0.00 | 30 | 1013.9 |
| 20260508205516 | 70 | 248 | 2.6 | 7.0 | 0.00 | 0.00 | 0.00 | 30 | 1013.9 |
| 20260508204516 | 70 | 225 | 1.7 | 4.3 | 0.00 | 0.00 | 0.00 | 36 | 1014.0 |
| 20260508203536 | 70 | 270 | 1.7 | 5.2 | 0.00 | 0.00 | 0.00 | 33 | 1014.2 |
| 20260508202516 | 69 | 315 | 1.7 | 8.7 | 0.00 | 0.00 | 0.00 | 36 | 1014.2 |
| 20260508201516 | 70 | 0 | 2.6 | 7.8 | 0.00 | 0.00 | 0.00 | 38 | 1014.5 |
| 20260508200516 | 70 | 225 | 0.9 | 3.5 | 0.00 | 0.00 | 0.00 | 35 | 1014.7 |
| 20260508195516 | 70 | 225 | 2.6 | 5.2 | 0.00 | 0.00 | 0.00 | 36 | 1014.9 |
| 20260508194516 | 70 | 225 | 0.9 | 2.6 | 0.00 | 0.00 | 0.00 | 36 | 1015.3 |
| 20260508193516 | 69 | 180 | 1.7 | 8.7 | 0.00 | 0.00 | 0.00 | 36 | 1015.7 |
| 20260508192536 | 69 | 203 | 2.6 | 6.1 | 0.00 | 0.00 | 0.00 | 34 | 1015.8 |
| 20260508191516 | 69 | 23 | 1.7 | 3.5 | 0.00 | 0.00 | 0.00 | 35 | 1015.9 |
| 20260508190516 | 69 | 68 | 0.9 | 3.5 | 0.00 | 0.00 | 0.00 | 35 | 1015.9 |
| 20260508185526 | 69 | 203 | 1.7 | 6.1 | 0.00 | 0.00 | 0.00 | 33 | 1016.2 |
| 20260508184516 | 68 | 180 | 2.6 | 5.2 | 0.00 | 0.00 | 0.00 | 33 | 1016.2 |
| 20260508183516 | 68 | 180 | 1.7 | 4.3 | 0.00 | 0.00 | 0.00 | 37 | 1016.5 |
| 20260508182516 | 68 | 23 | 0.9 | 2.6 | 0.00 | 0.00 | 0.00 | 35 | 1016.6 |
| 20260508181516 | 67 | 23 | 1.7 | 5.2 | 0.00 | 0.00 | 0.00 | 39 | 1016.7 |
| 20260508180516 | 67 | 90 | 1.7 | 3.5 | 0.00 | 0.00 | 0.00 | 35 | 1016.7 |
| 20260508175515 | 66 | 135 | 1.7 | 2.6 | 0.00 | 0.00 | 0.00 | 39 | 1016.9 |
| 20260508174516 | 66 | 270 | 0.9 | 3.5 | 0.00 | 0.00 | 0.00 | 34 | 1017.0 |
| 20260508173535 | 66 | 68 | 1.7 | 6.1 | 0.00 | 0.00 | 0.00 | 33 | 1017.1 |
| 20260508172515 | 66 | 113 | 2.6 | 7.8 | 0.00 | 0.00 | 0.00 | 41 | 1017.3 |
| 20260508171516 | 66 | 203 | 0.9 | 3.5 | 0.00 | 0.00 | 0.00 | 37 | 1017.4 |
| 20260508170536 | 66 | 315 | 0.9 | 3.5 | 0.00 | 0.00 | 0.00 | 39 | 1017.6 |
| 20260508165515 | 65 | 293 | 1.7 | 7.0 | 0.00 | 0.00 | 0.00 | 43 | 1017.8 |
| 20260508164516 | 65 | 45 | 0.9 | 2.6 | 0.00 | 0.00 | 0.00 | 41 | 1018.1 |
| 20260508163516 | 65 | 180 | 0.9 | 2.6 | 0.00 | 0.00 | 0.00 | 43 | 1018.1 |
| 20260508162515 | 64 | 293 | 0.9 | 3.5 | 0.00 | 0.00 | 0.00 | 44 | 1018.2 |
| 20260508161515 | 64 | 45 | 1.7 | 3.5 | 0.00 | 0.00 | 0.00 | 42 | 1018.4 |
| 20260508160516 | 64 | 90 | 1.7 | 3.5 | 0.00 | 0.00 | 0.00 | 43 | 1018.7 |
| 20260508155535 | 64 | 0 | 1.7 | 5.2 | 0.00 | 0.00 | 0.00 | 51 | 1018.6 |
| 20260508154515 | 63 | 0 | 1.7 | 4.3 | 0.00 | 0.00 | 0.00 | 47 | 1018.8 |
| 20260508153515 | 63 | 0 | 1.7 | 3.5 | 0.00 | 0.00 | 0.00 | 46 | 1019.0 |
| 20260508152535 | 63 | 315 | 1.7 | 2.6 | 0.00 | 0.00 | 0.00 | 52 | 1019.1 |
| 20260508151515 | 62 | 0 | 1.7 | 3.5 | 0.00 | 0.00 | 0.00 | 46 | 1019.3 |
| 20260508150557 | 62 | 113 | 0.9 | 3.5 | 0.00 | 0.00 | 0.00 | 50 | 1019.3 |
| 20260508145517 | 61 | 135 | 1.7 | 6.1 | 0.00 | 0.00 | 0.00 | 49 | 1019.4 |
| 20260508144527 | 61 | 180 | 1.7 | 4.3 | 0.00 | 0.00 | 0.00 | 50 | 1019.2 |
| 20260508143517 | 60 | 203 | 2.6 | 4.3 | 0.00 | 0.00 | 0.00 | 45 | 1019.4 |
| 20260508142517 | 60 | 113 | 1.7 | 3.5 | 0.00 | 0.00 | 0.00 | 47 | 1019.4 |
| 20260508141517 | 60 | 113 | 1.7 | 4.3 | 0.00 | 0.00 | 0.00 | 49 | 1019.3 |
| 20260508140517 | 60 | 158 | 0.9 | 3.5 | 0.00 | 0.00 | 0.00 | 52 | 1019.4 |
| 20260508135517 | 59 | 158 | 0.9 | 2.6 | 0.00 | 0.00 | 0.00 | 55 | 1019.3 |
| 20260508134517 | 58 | 225 | 0.9 | 1.7 | 0.00 | 0.00 | 0.00 | 67 | 1019.3 |
| 20260508133517 | 57 | 315 | 0.9 | 1.7 | 0.00 | 0.00 | 0.00 | 74 | 1019.4 |
| 20260508132517 | 56 | 315 | 0.9 | 2.6 | 0.00 | 0.00 | 0.00 | 73 | 1019.1 |
| 20260508131518 | 55 | 315 | 0.9 | 1.7 | 0.00 | 0.00 | 0.00 | 78 | 1019.2 |
| 20260508130517 | 54 | 315 | 0.9 | 1.7 | 0.00 | 0.00 | 0.00 | 81 | 1019.0 |
| 20260508125517 | 52 | 0.0 | 1.7 | 0.00 | 0.00 | 0.00 | 84 | 1019.0 | |
| 20260508124517 | 50 | 0.0 | 1.7 | 0.00 | 0.00 | 0.00 | 88 | 1019.0 | |
| 20260508123517 | 48 | 338 | 0.9 | 0.9 | 0.00 | 0.00 | 0.00 | 88 | 1018.9 |
| 20260508122517 | 46 | 0.0 | 1.7 | 0.00 | 0.00 | 0.00 | 93 | 1018.8 | |
| 20260508121517 | 44 | 0.0 | 0.0 | 0.00 | 0.00 | 0.00 | 94 | 1018.8 | |
| 20260508120517 | 42 | 0.0 | 1.7 | 0.00 | 0.00 | 0.00 | 94 | 1018.5 | |
| 20260508115517 | 41 | 0.0 | 1.7 | 0.00 | 0.00 | 0.00 | 94 | 1018.5 | |
| 20260508114517 | 40 | 0.0 | 1.7 | 0.00 | 0.00 | 0.00 | 94 | 1018.5 | |
| 20260508113517 | 39 | 0.0 | 0.0 | 0.00 | 0.00 | 0.00 | 94 | 1018.2 | |
| 20260508112517 | 38 | 0.0 | 0.0 | 0.00 | 0.00 | 0.00 | 93 | 1017.9 | |
| 20260508111517 | 38 | 0.0 | 1.7 | 0.00 | 0.00 | 0.00 | 93 | 1017.8 | |
| 20260508110517 | 38 | 0.0 | 1.7 | 0.00 | 0.00 | 0.00 | 93 | 1017.6 | |
| 20260508105517 | 38 | 0.0 | 1.7 | 0.00 | 0.00 | 0.00 | 93 | 1017.4 | |
| 20260508104517 | 38 | 0.0 | 0.9 | 0.00 | 0.00 | 0.00 | 92 | 1017.5 | |
| 20260508103517 | 38 | 0.0 | 0.0 | 0.00 | 0.00 | 0.00 | 92 | 1017.5 | |
| 20260508102517 | 39 | 0.0 | 1.7 | 0.00 | 0.00 | 0.00 | 93 | 1017.5 | |
| 20260508101517 | 39 | 0.0 | 0.0 | 0.00 | 0.00 | 0.00 | 92 | 1017.3 | |
| 20260508100517 | 39 | 0.0 | 0.9 | 0.00 | 0.00 | 0.00 | 92 | 1017.1 | |
| 20260508095517 | 39 | 0.0 | 0.0 | 0.00 | 0.01 | 0.00 | 92 | 1017.2 | |
| 20260508094517 | 39 | 0.0 | 0.9 | 0.00 | 0.01 | 0.00 | 92 | 1017.0 | |
| 20260508093537 | 39 | 0.0 | 0.0 | 0.00 | 0.01 | 0.00 | 91 | 1017.0 | |
| 20260508092517 | 40 | 0.0 | 0.0 | 0.00 | 0.01 | 0.00 | 91 | 1017.1 | |
| 20260508091517 | 40 | 0.0 | 0.0 | 0.00 | 0.01 | 0.00 | 92 | 1016.9 | |
| 20260508090517 | 40 | 0.0 | 0.9 | 0.00 | 0.01 | 0.00 | 92 | 1016.7 | |
| 20260508085517 | 40 | 0.0 | 0.0 | 0.00 | 0.01 | 0.00 | 92 | 1016.8 | |
| 20260508084516 | 40 | 0.0 | 0.9 | 0.00 | 0.01 | 0.00 | 92 | 1016.8 | |
| 20260508083516 | 40 | 0.0 | 0.0 | 0.00 | 0.01 | 0.00 | 91 | 1016.8 | |
| 20260508082517 | 41 | 0.0 | 0.0 | 0.00 | 0.01 | 0.00 | 91 | 1016.6 | |
| 20260508081516 | 41 | 0.0 | 1.7 | 0.00 | 0.01 | 0.00 | 92 | 1016.6 | |
| 20260508080516 | 41 | 0.0 | 0.0 | 0.00 | 0.01 | 0.00 | 91 | 1016.5 | |
| 20260508075516 | 41 | 0.0 | 0.0 | 0.00 | 0.02 | 0.00 | 91 | 1016.7 | |
| 20260508074517 | 42 | 0.0 | 0.0 | 0.00 | 0.02 | 0.00 | 91 | 1016.7 | |
| 20260508073519 | 42 | 0 | 0.9 | 0.9 | 0.00 | 0.02 | 0.00 | 90 | 1016.7 |
| 20260508072516 | 42 | 0.0 | 1.7 | 0.00 | 0.02 | 0.00 | 90 | 1016.8 | |
| 20260508071516 | 42 | 0 | 0.9 | 0.9 | 0.00 | 0.02 | 0.00 | 92 | 1016.5 |